(270444) = 2002 CG145

Discovered at Socorro on 2002-02-09 by LINEAR.

Orbit

Orbit type: Main Belt

Note: WebGL enabled browser required.

epoch2024-03-31.0
epoch JD2460400.5
perihelion date2023-06-11.85927
perihelion JD2460107.35927
argument of perihelion (°)332.40742
ascending node (°)166.19522
inclination (°)10.71986
eccentricity0.1731420
perihelion distance (AU)2.1834492
Tisserand w.r.t. Jupiter3.3
ΔV w.r.t. Earth (km/sec)9.8
semimajor axis (AU)2.6406578
mean anomaly (°)67.33050
mean daily motion (°/day)0.22968660
aphelion distance (AU)3.098
period (years)4.29
P-vector [x]-0.75207030
P-vector [y]0.63377859
P-vector [z]0.18087280
Q-vector [x]-0.65758674
Q-vector [y]-0.74003497
Q-vector [z]-0.14116628
absolute magnitude16.4
phase slope0.15
uncertainty0
referenceMPEC 2024-F28
observations used484
oppositions14
arc length (days)8568
first opposition used2000
last opposition used2024
residual rms (arc-secs)0.74
perturbers coarse indicatorM-v
perturbers precise indicator003Ek
first observation date used2000-10-02.0
last observation date used2024-03-18.0
computer nameMPCLINUX
JD of orbit computation2456612.719590
perihelion JD uncertainty (days)1.9102E-04
argument of perihelion uncertainty (°)5.1069E-05
ascending node uncertainty (°)3.5345E-05
inclination uncertainty (°)9.3121E-06
eccentricity uncertainty 8.2197E-08
perihelion distance uncertainty (AU)2.0336E-07
Minimum Orbit Intersection Distances (in AU)
for orbit epoch: 2460400.5, reference: E2024-F28
Mercury1.84037
Venus1.47454
Earth1.20228
Mars0.54623
Jupiter1.94014
Saturn6.54725
Uranus16.1896
Neptune26.9158

Observations

500 total observations over interval: 2000 10 02.420690 – 2024 03 18.641325
These data are available for download (format description).

Date (UT) J2000 RA J2000 Dec Magn Location Ref
2000 10 02.420690 01 38 17.687 +00 54 23.46 20.52 V 645 – Apache Point-Sloan Digital Sky Survey MPS 255781
2000 10 02.424162 01 38 17.534 +00 54 21.67 21.25   645 – Apache Point-Sloan Digital Sky Survey MPS 255781
2002 01 25.50981 11 15 35.68 -00 03 13.0 19.9   644 – Palomar Mountain/NEAT MPS 55518
2002 01 25.52027 11 15 35.67 -00 03 09.6 20.2   644 – Palomar Mountain/NEAT MPS 55518
2002 01 25.53079 11 15 35.60 -00 03 06.9 20.7   644 – Palomar Mountain/NEAT MPS 55518
2002 02 06.53356 11 13 12.40 +01 10 07.4 19.6   644 – Palomar Mountain/NEAT MPS 52713
2002 02 06.54389 11 13 12.17 +01 10 12.5 19.4   644 – Palomar Mountain/NEAT MPS 52713
2002 02 06.55437 11 13 11.94 +01 10 16.9 19.7   644 – Palomar Mountain/NEAT MPS 52713
2002 02 09.38156 11 12 04.63 +01 32 59.7 19.4   704 – Lincoln Laboratory ETS, New Mexico MPS 50325
2002 02 09.39602 11 12 04.18 +01 33 08.2 19.4   704 – Lincoln Laboratory ETS, New Mexico MPS 50325
2002 02 09.41061 11 12 03.75 +01 33 13.9 19.2   704 – Lincoln Laboratory ETS, New Mexico MPS 50325
2002 02 09.42508 11 12 03.33 +01 33 22.8 19.2   704 – Lincoln Laboratory ETS, New Mexico MPS 50325
2002 02 09.43955 11 12 02.94 +01 33 29.5 19.2   704 – Lincoln Laboratory ETS, New Mexico MPS 50325
2002 02 11.37930 11 11 09.86 +01 50 14.1 18.9   704 – Lincoln Laboratory ETS, New Mexico MPS 50325
2002 02 11.39366 11 11 09.41 +01 50 21.9 19.1   704 – Lincoln Laboratory ETS, New Mexico MPS 50325
2002 02 11.40822 11 11 08.96 +01 50 30.0 19.2   704 – Lincoln Laboratory ETS, New Mexico MPS 50325
2002 02 11.42264 11 11 08.52 +01 50 37.6 18.9   704 – Lincoln Laboratory ETS, New Mexico MPS 50325
2002 02 11.43695 11 11 08.08 +01 50 45.4 19.0   704 – Lincoln Laboratory ETS, New Mexico MPS 50325
2002 02 20.30564 11 06 05.35 +03 17 19.6 18.8   704 – Lincoln Laboratory ETS, New Mexico MPS 55518
2002 02 20.31973 11 06 04.80 +03 17 27.9 19.4   704 – Lincoln Laboratory ETS, New Mexico MPS 55518
2002 02 20.33382 11 06 04.22 +03 17 37.2 19.7   704 – Lincoln Laboratory ETS, New Mexico MPS 55518
2002 02 20.34842 11 06 03.64 +03 17 46.8 19.0   704 – Lincoln Laboratory ETS, New Mexico MPS 55518
2002 02 20.36302 11 06 03.07 +03 17 55.8 19.1   704 – Lincoln Laboratory ETS, New Mexico MPS 55518
2002 02 25.27796 11 02 44.19 +04 11 12.8 18.6   644 – Palomar Mountain/NEAT MPS 55518
2002 02 25.34019 11 02 41.45 +04 11 54.4 19.1   644 – Palomar Mountain/NEAT MPS 55518
2002 02 25.40311 11 02 38.64 +04 12 35.9 18.6   644 – Palomar Mountain/NEAT MPS 55518
2002 03 04.37381 10 57 37.70 +05 31 28.1 18.0 R 703 – Catalina Sky Survey MPS 55518
2002 03 04.38221 10 57 37.38 +05 31 32.3 18.6 R 703 – Catalina Sky Survey MPS 55518
2002 03 04.39060 10 57 36.90 +05 31 37.7 18.2 R 703 – Catalina Sky Survey MPS 55518
2002 03 04.39899 10 57 36.56 +05 31 44.4 18.1 R 703 – Catalina Sky Survey MPS 55518
2002 03 04.88105 10 57 15.86 +05 37 13.9 19.2   106 – Crni Vrh MPS 52713
2002 03 04.89880 10 57 15.05 +05 37 25.7 18.8   106 – Crni Vrh MPS 52713
2002 03 04.91671 10 57 14.21 +05 37 37.4 18.6   106 – Crni Vrh MPS 52713
2002 03 05.30804 10 56 57.00 +05 42 07.1 18.6 R 699 – Lowell Observatory-LONEOS MPS 55518
2002 03 05.32388 10 56 56.29 +05 42 18.0   699 – Lowell Observatory-LONEOS MPS 55518
2002 03 05.33967 10 56 55.58 +05 42 29.1   699 – Lowell Observatory-LONEOS MPS 55518
2002 03 05.35534 10 56 54.81 +05 42 39.5   699 – Lowell Observatory-LONEOS MPS 55518
2002 03 05.50662 10 56 48.24 +05 44 24.5 20.2   608 – Haleakala-AMOS MPS 55518
2002 03 05.51765 10 56 47.68 +05 44 32.4 20.0   608 – Haleakala-AMOS MPS 55518
2002 03 05.52816 10 56 47.25 +05 44 40.0 20.1   608 – Haleakala-AMOS MPS 55518
2002 03 09.28825 10 54 04.81 +06 27 17.4 19.1   704 – Lincoln Laboratory ETS, New Mexico MPS 55518
2002 03 09.32820 10 54 03.06 +06 27 44.5 19.8   704 – Lincoln Laboratory ETS, New Mexico MPS 55518
2002 03 09.34805 10 54 02.09 +06 27 57.6 19.2   704 – Lincoln Laboratory ETS, New Mexico MPS 55518
2002 03 09.36782 10 54 01.19 +06 28 10.5 19.3   704 – Lincoln Laboratory ETS, New Mexico MPS 55518
2002 03 10.24792 10 53 24.18 +06 38 04.9 18.7   704 – Lincoln Laboratory ETS, New Mexico MPS 55518
2002 03 10.26933 10 53 23.26 +06 38 19.1 18.9   704 – Lincoln Laboratory ETS, New Mexico MPS 55519
2002 03 10.29099 10 53 22.30 +06 38 33.1 18.9   704 – Lincoln Laboratory ETS, New Mexico MPS 55519
2002 03 12.24416 10 52 00.83 +07 00 16.5 19.0 V 691 – Steward Observatory, Kitt Peak-Spacewatch MPS 55519
2002 03 12.26585 10 51 59.89 +07 00 30.5 19.4 V 691 – Steward Observatory, Kitt Peak-Spacewatch MPS 55519
2002 03 12.28710 10 51 58.97 +07 00 44.8 18.9 V 691 – Steward Observatory, Kitt Peak-Spacewatch MPS 55519
2002 03 12.31033 10 51 57.93 +07 01 02.0 18.4   704 – Lincoln Laboratory ETS, New Mexico MPS 55519
2002 03 12.34793 10 51 56.28 +07 01 27.0 19.0   704 – Lincoln Laboratory ETS, New Mexico MPS 55519
2002 03 12.36648 10 51 55.51 +07 01 40.2 19.2   704 – Lincoln Laboratory ETS, New Mexico MPS 55519
2002 03 12.92107 10 51 33.07 +07 07 40.7 18.6   106 – Crni Vrh MPS 52713
2002 03 12.94296 10 51 32.13 +07 07 55.5 18.7   106 – Crni Vrh MPS 52713
2002 03 12.96486 10 51 31.19 +07 08 11.4 16.5   106 – Crni Vrh MPS 52713
2002 03 13.25986 10 51 19.34 +07 11 26.3 18.5   704 – Lincoln Laboratory ETS, New Mexico MPS 55519
2002 03 13.27363 10 51 18.79 +07 11 35.2 19.3   704 – Lincoln Laboratory ETS, New Mexico MPS 55519
2002 03 13.28747 10 51 18.17 +07 11 44.1 19.2   704 – Lincoln Laboratory ETS, New Mexico MPS 55519
2002 03 13.30133 10 51 17.55 +07 11 53.1 18.8   704 – Lincoln Laboratory ETS, New Mexico MPS 55519
2002 03 13.31523 10 51 16.96 +07 12 02.5 18.7   704 – Lincoln Laboratory ETS, New Mexico MPS 55519
2002 03 13.32361 10 51 16.67 +07 12 08.3 19.1   644 – Palomar Mountain/NEAT MPS 55519
2002 03 13.34736 10 51 15.63 +07 12 24.2 19.1   644 – Palomar Mountain/NEAT MPS 55519
2002 03 13.36998 10 51 14.66 +07 12 38.8 18.6   644 – Palomar Mountain/NEAT MPS 55519
2002 03 14.24381 10 50 39.83 +07 22 07.5 18.7   704 – Lincoln Laboratory ETS, New Mexico MPS 52713
2002 03 14.25754 10 50 39.29 +07 22 16.8 19.3   704 – Lincoln Laboratory ETS, New Mexico MPS 52713
2002 03 14.27118 10 50 38.74 +07 22 25.6 19.2   704 – Lincoln Laboratory ETS, New Mexico MPS 52713
2002 03 14.28577 10 50 38.07 +07 22 34.6 19.0   704 – Lincoln Laboratory ETS, New Mexico MPS 52713
2002 03 14.29972 10 50 37.50 +07 22 43.8 19.2   704 – Lincoln Laboratory ETS, New Mexico MPS 52713
2002 03 16.23717 10 49 22.22 +07 43 26.7 19.3   704 – Lincoln Laboratory ETS, New Mexico MPS 52713
2002 03 16.25076 10 49 21.66 +07 43 34.2 19.5   704 – Lincoln Laboratory ETS, New Mexico MPS 52713
2002 03 16.26417 10 49 21.12 +07 43 42.9 19.3   704 – Lincoln Laboratory ETS, New Mexico MPS 52713
2002 03 16.27758 10 49 20.58 +07 43 51.9 19.4   704 – Lincoln Laboratory ETS, New Mexico MPS 52713
2002 03 16.29104 10 49 20.05 +07 43 59.7 18.9   704 – Lincoln Laboratory ETS, New Mexico MPS 52713
2002 03 16.39975 10 49 15.84 +07 45 10.0 20.1   608 – Haleakala-AMOS MPS 52713
2002 03 16.41067 10 49 15.43 +07 45 17.1 20.0   608 – Haleakala-AMOS MPS 52713
2002 03 16.42145 10 49 14.97 +07 45 23.9 20.1   608 – Haleakala-AMOS MPS 52713
2002 03 23.29168 10 45 19.01 +08 53 54.2 20.1   644 – Palomar Mountain/NEAT MPS 55519
2002 03 23.31309 10 45 18.32 +08 54 06.1 19.8   644 – Palomar Mountain/NEAT MPS 55519
2002 03 23.33433 10 45 17.58 +08 54 17.6 19.7   644 – Palomar Mountain/NEAT MPS 55519
2002 04 15.12930 10 40 17.41 +11 27 47.7 19.4   704 – Lincoln Laboratory ETS, New Mexico MPS 55519
2002 04 15.14323 10 40 17.54 +11 27 51.0 20.1   704 – Lincoln Laboratory ETS, New Mexico MPS 55519
2002 04 15.17112 10 40 17.60 +11 27 57.1 20.4   704 – Lincoln Laboratory ETS, New Mexico MPS 55519
2002 04 15.18529 10 40 17.61 +11 28 02.3 19.8   704 – Lincoln Laboratory ETS, New Mexico MPS 55519
2004 09 16.35210 23 47 17.94 -03 57 13.4 20.3 V 691 – Steward Observatory, Kitt Peak-Spacewatch MPS 255781
2004 09 16.38485 23 47 16.36 -03 57 29.8 20.2 V 691 – Steward Observatory, Kitt Peak-Spacewatch MPS 255781
2004 09 16.41742 23 47 14.79 -03 57 46.2 20.2 V 691 – Steward Observatory, Kitt Peak-Spacewatch MPS 255781
2008 09 07.24002 22 03 29.05 -08 29 52.6 20.8 V G96 – Mt. Lemmon Survey MPS 255781
